Regional Weather Roundup
Issued by NWS New Orleans/Baton Rouge, LA

Home | Current Version | Previous Version | Text Only | Print | Product List | Glossary On
Versions: 1 2 3 4 5 6 7 8 9 10 11 12 13 14 15 16 17 18 19 20 21 22 23 24 25 26 27 28 29 30 31 32 33 34 35 36 37 38 39 40 41 42 43 44 45 46 47 48 49 50
035
ASUS44 KLIX 171014
RWRLIX
NEW ORLEANS REGIONAL WEATHER ROUNDUP
NATIONAL WEATHER SERVICE NEW ORLEANS LA
400 AM CST SUN DEC 17 2017

NOTE: "FAIR" INDICATES FEW OR NO CLOUDS BELOW 12,000 FEET WITH NO
      SIGNIFICANT WEATHER AND/OR OBSTRUCTIONS TO VISIBILITY.
      SKY/WX - SKY CONDITION AND SIGNIFICANT WEATHER.
      TMP - AIR TEMPERATURE.     DP    - DEWPOINT TEMPERATURE.
      RH  - RELATIVE HUMIDITY.   PRES  - PRESSURE.
      HI  - HEAT INDEX.          WCI   - WIND CHILL INDEX.

*  THESE STATIONS ARE NOT NWS OR FAA STATIONS AND ARE NOT UNDER
   NWS QUALITY CONTROL.

LAZ038-040-048-061>063-065>067-069-171100-
SOUTHEAST LOUISIANA

CITY           SKY/WX    TMP DP  RH WIND       PRES   REMARKS
N.O. INTL ARPT CLOUDY    67  65  93 SE8       30.08R
N.O. LAKEFRONT CLOUDY    67  63  87 S7        30.10R
N.O. DOWNTOWN* CLOUDY    65  62  90 VRB5      30.09R
RESERVE*       DRIZZLE   67  63  87 SE12      30.06F
SLIDELL        CLOUDY    66  61  84 SE8       30.09R
BATON ROUGE    LGT RAIN  62  60  93 E8G16     30.02F
BOOTHVILLE     CLOUDY    71  67  87 SE13      30.07R
BELLE CHASSE   CLOUDY    62  62 100 CALM      30.08R
BOGALUSA*      CLOUDY    60  54  80 MISG      30.10R
GALLIANO*      PTSUNNY   67  64  88 SE8       30.05S
NEW ROADS*     RAIN      60  59  96 SE8       30.04S
GONZALES*      CLOUDY    64  62  92 SE5       30.03F
HAMMOND*       CLOUDY    61  59  94 S8        30.07F
HOUMA*         CLOUDY    66  65  95 SE3       30.06R
PORT FOURCHON* CLOUDY    70  68  94 SE10G16   30.07R

$$

MSZ070-080>082-171100-
SOUTHERN MISSISSIPPI

CITY           SKY/WX    TMP DP  RH WIND       PRES   REMARKS
MCCOMB         CLOUDY    59  54  83 SE12G21   30.06R
GULFPORT       CLOUDY    62  60  93 SE10      30.09R
BILOXI         CLOUDY    63  60  90 SE12      30.09R
PASCAGOULA     PTCLDY    62  57  83 SE8       30.12R

$$

COASTAL OBSERVATIONS
LAKE AND NEARSHORE STATIONS

STATION/POSITION TIME  TEMP    WIND        PRES    WAVE
                       AIR SEA DIR/SP/G            HT/PER
                 (UTC) (F)     (DEG/KT/KT) (MB)    (FT/S)
PASCAGOULA       0948   63     120/ 13/ 20 1019.0
WAVELAND YACHT   0936   61 53  130/ 10/ 14 1018.4
GRAND ISLE       0948   68 63  160/  7/ 11 1018.1
SOUTHWEST PASS   0948   71 57  150/ 17/ 25 1018.6
NEW CANAL        0948   66 54  160/  3/  5 1018.6
SHELL BEACH      0936   63 55  130/ 15/ 19 1017.7

OFFSHORE STATIONS

STATION/POSITION TIME  TEMP    WIND        PRES    WAVE
                       AIR SEA DIR/SP/G            HT/PER
                 (UTC) (F)     (DEG/KT/KT) (MB)    (FT/S)
64 S DAUPHIN ISL 0950   71 70  140/ 21/ 25 1019.2    6/ 6

$$





USA.gov is the U.S. government's official web portal to all federal, state and local government web resources and services.